www.pogodaiklimat.ru

Погода и климат >> Архив погоды >> Индонезия >> Surabaya Gedangan


ПОГОДА в Surabaya Gedangan

  • Прогноз погоды в Surabaya Gedangan
  • Монитор погоды в Surabaya Gedangan
  • Климат города

АРХИВ ПОГОДЫ в Surabaya Gedangan

Время (UTC), дата Ветер
(напр.,м/с)
 
Видим.   Явления Облачность Т
(С)
Тd
(С)
f
(%)
Тe
(С)
Тes
(С)
Комфортность P
(гПа)
Po
(гПа)
Тmin
(С)
Tmax
(С)
R
(мм)
S
(см)
00 14.02 З 2 9000 м 5/3 600 м
[Cu hum Ac trans Ci fib]
+25.6 +24.3 93 +36 +38 очень
душно
1013.0 1012.7 +24.9
03 14.02 ЮЗ 4 10 км 8/5
[Cu Sc Ac trans Ci fib]
+31.0 +25.3 72 +45 +50 опасность
перегрева
1013.2 1012.9
06 14.02 С 3 10 км 5/0
[Cu med, cong As trans Ci fib]
+33.1 +25.3 64 +48 +60 опасность
перегрева
1010.9 1010.6
09 14.02 ЮВ 3 9000 м 8/0
[Cu med, cong Ac trans Ci fib]
+29.4 +23.9 72 +40 +42 очень
душно
1010.2 1009.8
12 14.02 ЮВ 3 9000 м осадки на расстоянии 8/0
[Cu Sc As trans Ci fib]
+28.4 +24.9 81 +41 +41 опасность
перегрева
1012.2 1011.9 +34.1
15 14.02 ЮЗ 2 8000 м слабый ливневой дождь, в посл. час гроза 10/0
[Cb cap As trans Ci fib]
+25.0 +24.0 94 +34 +34 очень
душно
1014.3 1013.9
18 14.02 штиль 0 8000 м {гроза, дождь} 10/8
[Sc diur, vesp As op]
+24.4 +23.4 94 +33 +33 очень
душно
1012.2 1011.9
21 14.02 штиль 0 8000 м 9/5 600 м
[Sc diur, vesp Ac As]
+24.6 +23.6 94 +33 +33 очень
душно
1011.0 1010.6
00 15.02 З 2 9000 м 5/4
[Cu hum Ac trans Ci fib]
+25.1 +24.0 94 +35 +37 очень
душно
1012.4 1012.0 +24.3
03 15.02 СЗ 3 11 км 5/3 600 м
[Cu hum Ac trans Ci fib]
+29.5 +24.0 72 +41 +51 опасность
перегрева
1012.8 1012.5
06 15.02 В 4 9000 м слабый дождь 8/5 600 м
[Cu med, cong Ac trans Ci fib]
+30.8 +24.3 68 +43 +48 опасность
перегрева
1010.5 1010.1 0.0
09 15.02 С 2 10 км {дождь} 8/4 600 м
[Cu hum As op Ci fib]
+30.6 +24.2 69 +43 +44 опасность
перегрева
1009.1 1008.8
12 15.02 СЗ 2 5000 м слабый дождь 10/0
[Cu med, cong As op]
+25.6 +23.7 89 +35 +35 очень
душно
1012.3 1011.9 +32.6
15 15.02 ЮЗ 2 8000 м {дождь} 5/3 600 м
[Cu hum As trans Ci fib]
+25.0 +24.0 94 +34 +34 очень
душно
1013.4 1013.0
18 15.02 З 1 8000 м 8/4 600 м
[Cu hum As trans Ci fib]
+24.8 +23.8 94 +34 +34 очень
душно
1011.4 1011.0
21 15.02 штиль 0 8000 м 9/5 600 м
[Cu hum As trans Cs]
+24.0 +23.4 96 +32 +32 очень
душно
1010.2 1009.9
00 16.02 СЗ 2 9000 м 9/4
[Cu hum Ac As Ci fib]
+25.4 +23.9 91 +35 +36 очень
душно
1012.1 1011.8 +23.9
03 16.02 СЗ 2 10 км 9/5
[Cu hum Ac As Ci fib]
+29.0 +24.7 78 +41 +47 опасность
перегрева
1012.0 1011.7
06 16.02 СЗ 4 11 км 8/0
[Cu med, cong As trans Ci fib]
+33.4 +25.0 62 +47 +56 опасность
перегрева
1009.0 1008.6
09 16.02 С 3 10 км осадки на расстоянии 8/5 600 м
[Cb calv Ac trans Ci fib]
+31.9 +25.1 67 +45 +46 опасность
перегрева
1007.9 1007.5
12 16.02 В 2 6000 м слабый дождь {гроза} 10/6 600 м
[Cu med, cong As op]
+25.6 +24.3 93 +36 +36 очень
душно
1011.5 1011.1 +33.6 19
15 16.02 штиль 0 7000 м слабый дождь 9/0
[Cu med, cong As op Ci fib]
+25.4 +24.1 93 +35 +35 очень
душно
1013.0 1012.6
18 16.02 СЗ 1 7000 м {дождь} 5/1 600 м
[Cu hum Ac trans Ci fib]
+25.0 +24.0 94 +34 +34 очень
душно
1011.3 1011.0
21 16.02 ЮЗ 2 7000 м 5/1 600 м
[Cu hum Ac trans Ci fib]
+24.6 +23.8 95 +33 +33 очень
душно
1010.9 1010.5
00 17.02 ЮЗ 1 8000 м 5/4
[Cu hum Ac trans Ci fib]
+29.6 +21.4 61 +37 +40 очень
душно
1011.8 1011.4 +24.6
03 17.02 СЗ 2 10 км 5/3 600 м
[Cu hum Ac trans Ci fib]
+30.2 +25.2 75 +44 +55 опасность
перегрева
1012.0 1011.7
06 17.02 В 2 9000 м слабый дождь 9/0
[Cb cap As op Ci fib]
+30.9 +25.2 72 +45 +55 опасность
перегрева
1010.3 1009.9
09 17.02 С 3 9000 м слабый дождь 10/0
[Cu med, cong As op]
+30.2 +25.8 77 +45 +45 опасность
перегрева
1009.6 1009.2
12 17.02 ЮВ 2 6000 м слабый ливневой дождь, в посл. час гроза 10/0
[Cb cap As op]
+25.4 +24.8 96 +36 +36 очень
душно
1011.2 1010.8 +31.8
15 17.02 ЮВ 1 7000 м {дождь} 10/0
[Cu med, cong As op]
+25.8 +25.2 96 +37 +37 очень
душно
1011.9 1011.5
18 17.02 ЮЗ 1 8000 м {дождь} 9/3
[Cu hum Ac As Ci fib]
+25.8 +25.2 96 +37 +37 очень
душно
1011.1 1010.7
21 17.02 ЮЗ 1 8000 м 5/3 600 м
[Cu hum As trans Ci fib]
+25.2 +24.6 96 +35 +35 очень
душно
1011.2 1010.9
00 18.02 штиль 0 10 км 5/3 600 м
[Cu hum Ac trans Ci sp]
+26.0 +24.7 93 +37 +40 очень
душно
1012.6 1012.2 +2.5
03 18.02 З 2 11 км 8/5
[Cu hum Ac trans Ci sp]
+30.2 +25.4 76 +44 +51 опасность
перегрева
1012.4 1012.1
06 18.02 СЗ 2 11 км 9/0
[Cu med, cong Ac trans Ci sp]
+33.4 +25.8 65 +49 +59 опасность
перегрева
1010.4 1010.1
12 18.02 С 2 10 км {дождь} 5/3 600 м
[Cu hum Ci fib]
+28.2 +24.3 79 +39 +39 очень
душно
1010.6 1010.3 +33.8
15 18.02 СЗ 2 10 км 5/3 600 м
[Cu hum Ci fib]
+27.4 +24.0 82 +38 +38 очень
душно
1011.9 1011.6
18 18.02 З 1 10 км 5/3 600 м
[Cu hum As trans Ci fib]
+27.0 +24.9 88 +39 +39 очень
душно
1010.6 1010.3
21 18.02 штиль 0 8000 м 9/4 600 м
[Cu hum As op Cs]
+26.8 +24.9 89 +38 +38 очень
душно
1010.2 1009.9
00 19.02 штиль 0 9000 м 4/3 600 м
[Cu hum Ci fib]
+27.1 +24.6 86 +38 +42 очень
душно
1011.6 1011.2 +25.9
03 19.02 З 2 9000 м 8/4 600 м
[Cu med, cong As trans Ci fib]
+30.8 +25.1 72 +45 +52 опасность
перегрева
1011.0 1010.7
06 19.02 С 3 10 км 9/4 600 м
[Cu hum As trans Ci fib]
+33.6 +25.7 63 +48 +54 опасность
перегрева
1008.8 1008.5
09 19.02 С 3 11 км 8/0
[Cu med, cong Ac trans Ci sp]
+32.8 +25.5 66 +48 +49 опасность
перегрева
1007.1 1006.8
12 19.02 З 4 8000 м 9/0
[Cu med, cong As op Ci sp]
+29.4 +24.8 76 +42 +42 опасность
перегрева
1009.6 1009.2 +34.1
15 19.02 ЮЗ 2 8000 м 9/0
[Cu med, cong As op Ci sp]
+26.8 +24.1 85 +37 +37 очень
душно
1011.7 1011.4
18 19.02 ЮВ 1 8000 м 10/4 600 м
[Cu med, cong As op Cs]
+26.6 +24.2 87 +37 +37 очень
душно
1009.5 1009.2
21 19.02 штиль 0 8000 м 10/6
[Sc diur, vesp As op Cs]
+26.2 +24.3 89 +36 +36 очень
душно
1009.4 1009.0
00 20.02 В 2 9000 м 9/8
[Cu hum As op Ci fib]
+26.4 +24.0 87 +37 +37 очень
душно
1010.7 1010.3 +25.7
03 20.02 СЗ 3 10 км 8/0
[Cu med, cong Ac As Ci fib]
+29.4 +24.4 75 +42 +52 опасность
перегрева
1010.8 1010.5
06 20.02 С 4 11 км 8/4 600 м
[Cu med, cong Ac As Ci fib]
+33.0 +25.4 64 +47 +53 опасность
перегрева
1007.7 1007.3
09 20.02 С 2 11 км 5/3 600 м
[Cu hum As trans Ci fib]
+32.2 +25.7 69 +47 +49 опасность
перегрева
1006.7 1006.3
12 20.02 С 2 10 км 5/3 600 м
[Cu hum Ci fib]
+29.2 +25.1 79 +42 +42 опасность
перегрева
1008.7 1008.4 +33.9
15 20.02 штиль 0 9000 м 8/0
[Cu med, cong As op Ci fib]
+27.7 +23.2 77 +37 +37 очень
душно
1011.4 1011.0
18 20.02 штиль 0 9000 м 6/3 600 м
[Cu hum Ci fib]
+26.8 +23.8 84 +37 +37 очень
душно
1009.6 1009.2
21 20.02 штиль 0 10 км 3/0
[Ci fib]
+26.0 +23.9 88 +36 +36 очень
душно
1008.9 1008.5

 

Местоположение метеостанции Surabaya Gedangan (Индонезия): широта -7.22 долгота 113.71 высота над уровнем моря 113 м.

В архиве по умолчанию представлена погода в Surabaya Gedangan за последнюю неделю. Архивные данные за месяц целиком и за предыдущие месяцы, начиная с января 2011 года, Вы можете получить, выбрав интересующий диапазон дат из раскрывающегося списка и нажав кнопку "Ввод!".

Внимание! Время в таблицах - всемирное. Для получения местного времени необходимо прибавить поправку, которая в Surabaya Gedangan равна 7 ч.

Смотрите также архив погоды в соседних городах и на ближайших метеорологических станциях:

Погода в Kalianget (Индонезия) (33 км)
Погода в Juanda Int Airport (Индонезия) (106 км)
Погода в Surabaya Perak (Индонезия) (110 км)
Погода в Banyuwangi (Индонезия) (134 км)
Погода в Sangkapura BI (Индонезия) (194 км)
Погода в Denpasar (Индонезия) (233 км)
Погода в Ampenan (Индонезия) (297 км)
Погода в Semarang (Индонезия) (365 км)
Погода в Achmad Yani Int Airport (Индонезия) (369 км)
Погода в Sumbawa Besar (Индонезия) (429 км)

Пояснения к столбцам:

Ветер - указаны скорость ветра в м/с - средняя за 10 мин, порывы в срок и между сроками (в фигурных скобках) и направление, откуда дует ветер: С - северный, СВ - северо-восточный, В - восточный, ЮВ - юго-восточный, Ю - южный, ЮЗ - юго-западный, З - западный, СЗ - северо-западный.
Видимость - горизонтальная дальность видимости в метрах или километрах. При видимости от 1 до 10 км при отсутствии осадков обычно наблюдается дымка, при ухудшении видимости до 1 км и менее - туман. В сухую погоду видимость может ухудшаться дымом, пылью или мглою.
Явления - указаны атмосферные явления, наблюдавшиеся в срок или в последний час перед сроком; фигурными скобками обозначены явления, наблюдавшиеся между сроками (за 1-3 часа до срока); квадратными скобками обозначены град или гололедные отложения с указанием их диаметра в мм.
Облачность - указаны через наклонную черту общая и нижняя облачность в баллах и высота нижней границы облаков в метрах; квадратными скобками обозначены формы облаков: Ci - перистые, Cs - перисто-слоистые, Cc - перисто-кучевые, Ac - высококучевые, As - высокослоистые, Sc - слоисто-кучевые, Ns - слоисто-дождевые, Cu - кучевые, Cb - кучево-дождевые. Подробнее классификацию облаков см. в Атласе облаков (PDF).
T - Температура воздуха - температура, измеренная на высоте 2 м над землей.
Td - Температура точки росы - температура, при понижении до которой содержащийся в воздухе водяной пар достигнет насыщения.
f - Относительная влажность воздуха - влажноcть воздуха, измеренная на высоте 2 м над землей.
Te - Эффективная температура - температура, которую ощущает одетый по сезону человек в тени. Характеристика душности погоды. При расчете учитывается влияние влажности воздуха и скорости ветра на теплоощущения человека.
Tes - Эффективная температура на солнце - температура, которую ощущает человек, с поправкой на солнечный нагрев. Характеристика знойности погоды. Зависит от высоты солнца над горизонтом, облачности и скорости ветра. Ночью, в пасмурную погоду, а также при ветре 12 м/с и более поправка равна нулю.
P - Атмосферное давление - приведенное к уровню моря атмосферное давление.
Po - Атмосферное давление - измеренное на уровне метеостанции атмосферное давление.
Tmin - Минимальная температура - минимум температуры воздуха на высоте 2 м над землей.
Tmax - Максимальная температура - максимум температуры воздуха на высоте 2 м над землей.
R - Количество осадков - Количество выпавших осадков, мм. При наведении курсора мыши на число - период времени, за который выпало указанное количество осадков.
S - Снежный покров - Высота снежного покрова, см. При наведении курсора мыши на число - состояние снежного покрова и степень покрытия местности в баллах.